Regional Weather Roundup
Issued by NWS Upton, NY

Current Version | Previous Version | Text Only | Print | Product List | Glossary Off
Versions: 1 2 3 4 5 6 7 8 9 10 11 12 13 14 15 16 17 18 19 20 21 22 23 24 25 26 27 28 29 30 31 32 33 34 35 36 37 38 39 40 41 42 43 44 45 46 47 48 49
000 ASUS41 KOKX 061505 RWROKX REGIONAL WEATHER ROUNDUP NATIONAL WEATHER SERVICE NEW YORK NY 1000 AM EST FRI MAR 06 2015 NOTE: "FAIR" INDICATES FEW OR NO CLOUDS BELOW 12,000 FEET WITH NO SIGNIFICANT WEATHER AND/OR OBSTRUCTIONS TO VISIBILITY. NYZ071-072-176-178-NJZ106-104-061600- NEW YORK CITY METRO AREA CITY SKY/WX TMP DP RH WIND PRES REMARKS CENTRAL PARK SUNNY 18 3 52 VRB5 30.56S WCI 11 LAGUARDIA APRT SUNNY 19 4 51 NE5 30.55S WCI 12 KENNEDY INTL MOSUNNY 19 1 45 N9 30.56F WCI 8 NEWARK/LIBERTY SUNNY 20 4 50 CALM 30.57R BRNX BOT. GARD N/A N/A N/A N/A NE8 30.54F TETERBORO SUNNY 20 0 41 VRB3 30.55S $$ NYZ177-179-078>081-061600- LONG ISLAND NEW YORK CITY SKY/WX TMP DP RH WIND PRES REMARKS FARMINGDALE SUNNY 19 3 49 N8 30.54S WCI 9 ISLIP SUNNY 18 2 49 N12 30.50F WCI 5 SHIRLEY SUNNY 19 2 47 N10G20 30.53F WCI 7 WESTHAMPTON SUNNY 18 2 49 NE13 30.52F WCI 5 MONTAUK POINT N/A 18 0 45 N9 30.52F WCI 7 $$ NYZ052-065-067-061600- HUDSON VALLEY CITY SKY/WX TMP DP RH WIND PRES REMARKS WHITE PLAINS SUNNY 17 -1 45 N10 30.50R WCI 5 NEWBURGH SUNNY 16 1 53 CALM 30.52F MONTGOMERY SUNNY 16 0 49 CALM 30.51F POUGHKEEPSIE SUNNY 16 1 51 CALM 30.54F ALBANY SUNNY 15 -2 46 NW7 30.53F WCI 5 $$ NJZ001-105-106-008-010-013-015-019>022-104-061600- NEW JERSEY CITY SKY/WX TMP DP RH WIND PRES REMARKS NEWARK/LIBERTY SUNNY 20 4 50 CALM 30.57R TETERBORO SUNNY 20 0 41 VRB3 30.55S CALDWELL SUNNY 18 0 45 VRB5 30.55S WCI 11 MORRISTOWN SUNNY 18 5 57 N6 30.56F WCI 9 SOMERVILLE SUNNY 18 3 52 VRB6 30.55S WCI 10 SUSSEX MIX PCPN 16 1 51 SE3 30.52S ANDOVER N/A 15 0 51 N8 30.52S WCI 4 TRENTON SUNNY 16 2 54 N6 30.56S WCI 7 MILLVILLE SUNNY 18 4 54 N7G21 30.57S WCI 9 ATLANTIC CITY SUNNY 18 8 65 N12 30.56R WCI 5 WRIGHTSTOWN SUNNY 16 5 62 N7 30.54S WCI 6 TOMS RIVER SUNNY 18 9 68 N8 30.56S WCI 7 BELMAR MOSUNNY 18 5 57 NW8 30.54R WCI 7 $$ PAZ047>061-062-071-061600- EASTERN PENNSYLVANIA CITY SKY/WX TMP DP RH WIND PRES REMARKS PHILADELPHIA SUNNY 17 5 59 N12 30.60S WCI 4 ALLENTOWN SUNNY 14 0 53 NW8 30.55F WCI 3 SCRANTON SUNNY 13 -1 54 CALM 30.50S $$ CTZ002-004>006-009-010-012-RIZ004-006-007-MAZ004-011-015-061600- SOUTHERN NEW ENGLAND IN CT CITY SKY/WX TMP DP RH WIND PRES REMARKS BRADLEY INTL SUNNY 18 -3 39 CALM 30.51F HARTFORD SUNNY 17 -2 43 N8 30.54S WCI 7 DANBURY SUNNY 16 -2 45 NE7 30.51S WCI 6 WTRBRY/OXFORD SUNNY 16 -6 38 N8 30.47F WCI 5 BRIDGEPORT SUNNY 19 2 47 N7 30.54S WCI 10 MERIDEN SUNNY 19 -1 41 N7 30.52F WCI 10 NEW HAVEN SUNNY 18 1 47 N8 30.52S WCI 8 CHESTER FAIR 18 0 45 N10 30.48F WCI 6 GROTON SUNNY 17 -2 43 NE14 30.51F WCI 3 WILLIMANTIC SUNNY 18 -8 31 NE8 30.50F WCI 8 IN RI CITY SKY/WX TMP DP RH WIND PRES REMARKS PROVIDENCE SUNNY 16 -7 35 N12 30.51F WCI 3 BLOCK ISLAND SUNNY 18 1 49 N8 30.47F WCI 7 WESTERLY SUNNY 17 -1 45 N9 30.51F WCI 6 IN MA CITY SKY/WX TMP DP RH WIND PRES REMARKS BOSTON MOSUNNY 18 -5 36 N6 30.51S WCI 10 WORCESTER SUNNY 15 -11 30 CALM 30.42R WESTFIELD SUNNY 18 -6 34 CALM 30.50F PROVINCETOWN MOSUNNY 21 7 53 N8 30.48R WCI 12 NANTUCKET CLOUDY 24 11 57 N16 30.45R WCI 11 $$ ANZ330-335-338-340-345-350-353-355-061600- COASTAL MARINE OBSERVATIONS STATION/POSITION TIME SKY/WX TEMP WIND PRES VSBY WAVE AIR SEA DIR/SP/G HT/PER (UTC) (F) (DEG/KT/KT) (MB) (MI) (FT/S) NY HARB ENTRANCE 1500 19 37 10/ 12/ 16 1034.2 3/ 4 4S FIRE IS NOT AVBL 20S FIRE ISLAND 1400 36 1034.1 4/ 5 23SW MTP 1500 N/A 4/ 5 HUDSON CANYON NOT AVBL EXECUTION ROCKS NOT AVBL WESTERN LI SOUND NOT AVBL CENTRAL LI SOUND NOT AVBL EASTERN LI SOUND NOT AVBL ROBBINS REEF 1500 15 320/ 6/ 8 1033.6 $$ >>>>>>>>>>>>>>>>>>>>>>>>>>>> KEY <<<<<<<<<<<<<<<<<<<<<<<<<<< > < > SKY/WX - SKY CONDITION/PRESENT WEATHER < > TMP - TEMPERATURE IN FAHRENHEIT < > DP - DEWPOINT IN FAHRENHEIT < > RH - RELATIVE HUMIDITY IN PERCENT < > WIND - DIRECTION AND SPEED IN MPH < > PRES - MEAN SEA LEVEL PRESSURE IN INCHES OF HG < > WCI - WIND CHILL INDEX < > VSB - VISIBILITY IN MILES < > HX - HEAT INDEX < > TC - TEMPERATURE IN CELSIUS < > VRB - VARIABLE WIND DIRECTION < > < >>>>>>>>>>>>>>>>>>>>>>>>>>>> KEY <<<<<<<<<<<<<<<<<<<<<<<<<<<

USA.gov is the U.S. government's official web portal to all federal, state and local government web resources and services.